Location: Innsbruck
(47.2657°N, 11.3914°E)
Time: 14:50:11
(UTC+02:00)

Tiangong - Visible Passes

Search period start: 21 April 2024 00:00
Search period end: 01 May 2024 00:00
Orbit: 371 x 379 km, 41.5° (Epoch: 21 April)

Date Brightness Start Highest point End Pass type
(mag) Time Alt. Az. Time Alt. Az. Time Alt. Az.
21 Apr -0.8 22:00:32 10° WSW 22:02:42 25° SSW 22:02:42 25° SSW visible
22 Apr -0.9 20:57:49 10° WSW 21:00:30 27° S 21:02:50 12° ESE visible
22 Apr 0.4 22:34:15 10° WSW 22:34:51 13° WSW 22:34:51 13° WSW visible
23 Apr -0.8 21:31:18 10° WSW 21:33:54 25° S 21:34:53 21° SSE visible
24 Apr -0.1 22:05:07 10° WSW 22:06:50 16° SSW 22:06:50 16° SSW visible
25 Apr -0.5 21:01:54 10° WSW 21:04:21 21° SSW 21:06:44 10° SE visible
26 Apr 0.2 21:36:00 10° SW 21:37:27 13° SSW 21:38:34 11° S visible
